FW2254 Weather Reports


Display with metric or nautical units.
time (UTC)temp
F
wind
direction
speed
MPH
gust
MPH
rain 1hr
in
rain 24hr
in
rain mn
in
humidity
%
barometer
mb
20260509123050 70 26 0.0 0.0 0.00 0.00 0.00 94 1008.1
20260509121547 70 26 0.0 0.0 0.00 0.00 0.00 94 1008.2
20260509120041 70 26 0.0 0.0 0.00 0.00 0.00 94 1007.9
20260509114540 70 26 0.0 1.0 0.00 0.00 0.00 94 1007.6
20260509113043 69 26 0.0 0.0 0.00 0.00 0.00 93 1006.9
20260509111537 69 26 0.0 0.0 0.00 0.00 0.00 93 1006.6
20260509110042 68 26 0.0 0.0 0.00 0.00 0.00 93 1006.6
20260509104547 68 26 0.0 1.0 0.00 0.00 0.00 92 1006.4
20260509103035 68 26 0.0 0.0 0.00 0.00 0.00 91 1006.6
20260509101533 68 26 0.0 0.0 0.00 0.00 0.00 90 1006.6
20260509100036 67 26 0.0 0.0 0.00 0.00 0.00 89 1006.7
20260509094532 67 26 0.0 0.0 0.00 0.00 0.00 89 1006.8
20260509093031 67 26 0.0 0.0 0.00 0.00 0.00 88 1006.8
20260509091529 67 26 0.0 0.0 0.00 0.00 0.00 88 1006.8
20260509090029 67 26 0.0 0.0 0.00 0.00 0.00 88 1006.9
20260509084534 67 26 0.0 0.0 0.00 0.00 0.00 87 1007.1
20260509083027 67 26 0.0 0.0 0.00 0.00 0.00 87 1007.8
20260509081537 67 26 0.0 0.0 0.00 0.00 0.00 87 1007.8
20260509080024 67 26 0.0 0.0 0.00 0.00 0.00 87 1007.7
20260509074523 67 26 0.0 0.0 0.00 0.00 0.00 86 1007.6
20260509073022 67 26 0.0 0.0 0.00 0.00 0.00 86 1007.6
20260509071522 67 26 0.0 0.0 0.00 0.00 0.00 86 1008.1
20260509070021 67 26 0.0 0.0 0.00 0.00 0.00 86 1008.4
20260509064519 67 26 0.0 0.0 0.00 0.00 0.00 86 1008.3
20260509063019 67 26 0.0 0.0 0.00 0.00 0.00 87 1008.4
20260509061516 67 26 0.0 1.0 0.00 0.00 0.00 87 1008.4
20260509060012 68 26 0.0 3.0 0.00 0.00 0.00 86 1008.8
20260509054521 70 25 0.0 0.0 0.00 0.00 0.00 86 1008.4
20260509053013 71 25 0.0 0.0 0.00 0.00 0.00 89 1009.4
20260509051502 71 25 0.0 0.0 0.00 0.00 0.00 89 1009.1
20260509050101 71 25 0.0 0.0 0.00 0.00 0.00 89 1008.9
20260509044558 71 26 0.0 0.0 0.00 0.00 0.00 88 1008.6
20260509043059 71 26 0.0 0.0 0.00 0.00 0.00 88 1008.5
20260509041558 71 26 0.0 0.0 0.00 0.00 0.00 88 1008.4
20260509040023 72 26 0.0 1.0 0.00 0.00 0.00 88 1008.0
20260509034523 72 25 0.0 0.0 0.00 0.00 0.00 87 1008.0
20260509033020 72 26 0.0 0.0 0.00 0.00 0.00 87 1007.9
20260509031519 72 25 0.0 0.0 0.00 0.00 0.00 87 1007.9
20260509030030 72 26 0.0 0.0 0.00 0.00 0.00 87 1007.9
20260509024517 72 26 0.0 0.0 0.00 0.00 0.00 86 1007.7
20260509023023 71 25 0.0 0.0 0.00 0.00 0.00 86 1007.2
20260509021513 71 25 0.0 0.0 0.00 0.00 0.00 85 1007.2
20260509020009 71 25 0.0 0.0 0.00 0.00 0.00 85 1007.0
20260509014508 71 25 0.0 0.0 0.00 0.00 0.00 85 1006.8
20260509013005 71 25 0.0 0.0 0.00 0.00 0.00 84 1006.7
20260509011608 72 26 0.0 0.0 0.00 0.00 0.00 83 1006.4
20260509010100 72 25 0.0 0.0 0.00 0.00 0.00 82 1006.3
20260509004606 73 26 0.0 0.0 0.00 0.00 0.00 81 1006.2
20260509003042 74 26 0.0 2.0 0.00 0.00 0.00 79 1006.4
20260509001522 75 25 0.0 1.0 0.00 0.00 0.00 77 1006.5
20260509000019 75 25 0.0 2.0 0.00 0.00 0.00 75 1006.4
20260508234523 76 26 0.0 0.0 0.00 0.00 0.00 75 1006.5
20260508233014 76 26 0.0 4.0 0.00 0.00 0.00 74 1006.4
20260508231510 76 26 1.0 5.0 0.00 0.00 0.00 73 1005.8
20260508230008 75 25 0.0 3.0 0.00 0.00 0.00 76 1005.8
20260508224502 75 25 0.0 1.0 0.00 0.00 0.00 78 1006.2
20260508223002 74 25 0.0 1.0 0.00 0.00 0.00 81 1007.1
20260508221502 75 25 0.0 3.0 0.00 0.00 0.00 76 1006.9
20260508220029 76 25 0.0 0.0 0.00 0.00 0.00 74 1007.3
20260508214528 76 25 0.0 1.0 0.00 0.00 0.00 73 1007.4
20260508213026 77 25 0.0 0.0 0.00 0.00 0.00 72 1007.4
20260508211528 77 25 0.0 1.0 0.00 0.00 0.00 70 1007.3
20260508210028 78 25 0.0 2.0 0.00 0.00 0.00 65 1007.5
20260508204524 79 25 0.0 3.0 0.00 0.00 0.00 64 1007.3
20260508203053 81 25 1.0 4.0 0.00 0.00 0.00 59 1007.6
20260508201559 80 26 0.0 3.0 0.00 0.00 0.00 61 1007.7
20260508200057 80 25 0.0 2.0 0.00 0.00 0.00 59 1007.9
20260508194544 79 25 0.0 2.0 0.00 0.00 0.00 59 1007.9
20260508193051 79 25 1.0 3.0 0.00 0.00 0.00 64 1008.6
20260508191541 79 25 1.0 3.0 0.00 0.00 0.00 63 1008.6
20260508190042 78 25 0.0 2.0 0.00 0.00 0.00 63 1008.9
20260508184535 78 25 0.0 3.0 0.00 0.00 0.00 64 1009.4
20260508183028 78 25 0.0 3.0 0.00 0.00 0.00 66 1009.6
20260508181527 77 25 0.0 3.0 0.00 0.00 0.00 65 1009.7
20260508180023 76 25 0.0 2.0 0.00 0.00 0.00 69 1010.1
20260508174530 75 25 0.0 2.0 0.00 0.00 0.00 69 1010.4
20260508173012 73 25 0.0 2.0 0.00 0.00 0.00 71 1010.7
20260508171512 74 25 0.0 4.0 0.00 0.00 0.00 70 1010.9
20260508170009 73 25 0.0 3.0 0.00 0.00 0.00 73 1011.1
20260508164509 74 25 1.0 5.0 0.00 0.00 0.00 71 1011.2
20260508163012 73 25 0.0 3.0 0.00 0.00 0.00 76 1011.4
20260508161502 72 25 0.0 3.0 0.00 0.00 0.00 74 1011.6
20260508160058 70 25 0.0 3.0 0.00 0.00 0.00 78 1011.7
20260508154525 69 25 0.0 3.0 0.00 0.00 0.00 79 1012.1
20260508153029 69 25 0.0 3.0 0.00 0.00 0.00 80 1012.5
20260508151553 69 25 0.0 3.0 0.00 0.00 0.00 81 1012.7
20260508150053 69 25 0.0 3.0 0.00 0.00 0.00 80 1012.6
20260508144550 65 25 0.0 3.0 0.00 0.00 0.00 86 1012.4
20260508143051 64 25 0.0 0.0 0.00 0.00 0.00 88 1012.3
20260508141552 62 25 0.0 0.0 0.00 0.00 0.00 92 1012.1
20260508140049 61 25 0.0 0.0 0.00 0.00 0.00 96 1012.2
20260508134523 60 25 0.0 0.0 0.00 0.00 0.00 96 1012.4
20260508133018 60 25 0.0 0.0 0.00 0.00 0.00 96 1012.7
20260508131554 59 25 0.0 0.0 0.00 0.00 0.00 96 1012.8
20260508130058 58 25 0.0 0.0 0.00 0.00 0.00 96 1013.3
20260508124544 58 25 0.0 0.0 0.00 0.00 0.00 96 1013.3